Regional Weather Roundup
Issued by NWS

Home | Current Version | Previous Version | Graphics & Text | Print | Product List | Glossary On
Versions: 1 2 3 4 5 6 7 8 9 10 11 12 13 14 15 16 17 18 19 20 21 22 23 24 25 26 27 28 29 30 31 32 33 34 35 36 37 38 39 40 41 42 43 44 45 46 47 48 49 50
000
ASUS43 KTOP 050308
RWRKS

WEATHER ROUNDUP FOR KANSAS
NATIONAL WEATHER SERVICE GOODLAND KS
1000 PM CDT SAT JUL 04 2015

NOTE:  "FAIR" INDICATES FEW OR NO CLOUDS BELOW 12,000 FEET WITH NO
SIGNIFICANT WEATHER AND/OR OBSTRUCTIONS TO VISIBILITY.

KSZ001>006-013>018-027>032-041>047-050400-
NORTHWEST KANSAS

CITY           SKY/WX    TMP DP  RH WIND       PRES   REMARKS
GOODLAND       MOCLDY    81  62  52 SE16G25   29.90R
HAYS           MOCLDY    81  63  54 SE10      29.90R
HILL CITY      MOCLDY    83  62  49 SE9       29.89R
RUSSELL        MOCLDY    80  64  58 SE13      29.89R
$$

KSZ061>065-074>080-084>089-050400-
SOUTHWEST KANSAS

CITY           SKY/WX    TMP DP  RH WIND       PRES   REMARKS
DODGE CITY     CLEAR     80  63  55 SE13      29.92R
ELKHART          N/A     82  57  42 S13         N/A
GARDEN CITY    PTCLDY    78  64  61 SE13      29.91R
GREAT BEND     PTCLDY    79  64  61 SE9       29.91R
LIBERAL        MOCLDY    77  64  65 SE12      29.94S
PRATT          CLEAR     82  63  51 S10       29.94R
$$

KSZ066>073-081>083-090>101-050400-
SOUTHEAST KANSAS

CITY           SKY/WX    TMP DP  RH WIND       PRES   REMARKS
CHANUTE        PTCLDY    76  67  73 E7        29.95R
COFFEYVILLE    CLEAR     78  68  71 SE5       29.94R
HUTCHINSON     PTCLDY    81  64  56 SE8       29.91R
MEDICINE LODGE   N/A     82  67  60 SE7       29.91R
NEWTON         CLEAR     77  61  57 SE9       29.95R
PARSONS        PTCLDY    78  68  71 CALM      29.96R
WICHITA INTL   PTCLDY    81  65  58 SE7       29.91R
WICHITA JABRA  CLEAR     77  65  66 SE6       29.92R
WICHITA MCCONL CLEAR     80  66  61 SE10      29.93R
WINFIELD       CLEAR     81  66  60 SE10      29.93R
$$

KSZ007>012-019>026-033>040-048>060-102>105-050400-
NORTHEAST KANSAS

CITY           SKY/WX    TMP DP  RH WIND       PRES   REMARKS
CONCORDIA      CLEAR     75  63  66 SE8       29.92R
EMPORIA        CLEAR     75  64  68 SE8       29.94R
LAWRENCE       CLEAR     69  64  84 E8        29.96R
MANHATTAN      CLEAR     75  65  70 CALM      29.92R
MARYSVILLE     CLEAR     72  64  78 SE8       29.93R
OLATHE IND     PTCLDY    73  64  73 CALM      29.98R
OLATHE EXE     PTCLDY    73  63  70 SE3       29.97R
SALINA         CLEAR     81  61  50 SE8       29.90R
TOPEKA BILLARD CLEAR     73  64  73 SE7       29.95R
TOPEKA FORBES  CLEAR     74  65  73 SE9       29.95R
$$



USA.gov is the U.S. government's official web portal to all federal, state and local government web resources and services.